QPF
0.01 0.01 0.01 0.01 0.00 0.00 0.00 0.01 0.03 0.05 0.06 0.09 0.10 0.08 0.07 0.07 0.07 0.07 0.08 0.09 0.09 0.10 0.10 0.11 0.10 0.09 0.09 0.08 0.07 0.05 0.05 0.05 0.05 0.05 0.05 0.04 0.03 0.03 0.03 0.03 0.02 0.01 0.01 0.01
0.01 0.01 0.01 0.01 0.01 0.01 0.01 0.03 0.05 0.07 0.08 0.12 0.12 0.12 0.12 0.10 0.09 0.09 0.10 0.10 0.09 0.09 0.08 0.08 0.07 0.08 0.08 0.08 0.08 0.07 0.06 0.06 0.05 0.04 0.03 0.03 0.02 0.01 0.01 0.01 0.00 0.00 0.00 0.00
0.00 0.01 0.01 0.01 0.01 0.03 0.04 0.05 0.07 0.07 0.08 0.14 0.15 0.14 0.14 0.14 0.14 0.12 0.10 0.09 0.09 0.10 0.10 0.09 0.07 0.07 0.07 0.08 0.07 0.05 0.04 0.03 0.02 0.01 0.01 0.01 0.00 0.00 0.00 0.00 0.00 0.00 0.00 0.00
0.00 0.00 0.01 0.01 0.02 0.05 0.07 0.07 0.08 0.07 0.08 0.13 0.14 0.14 0.14 0.15 0.15 0.15 0.13 0.12 0.11 0.09 0.08 0.08 0.07 0.06 0.05 0.04 0.03 0.02 0.01 0.01 0.00 0.00 0.00 0.00 0.00 0.00 0.00 0.01 0.01 0.01 0.01 0.00
0.00 0.00 0.01 0.01 0.02 0.03 0.04 0.04 0.05 0.05 0.05 0.05 0.06 0.09 0.12 0.12 0.12 0.14 0.13 0.10 0.08 0.07 0.05 0.05 0.04 0.03 0.02 0.01 0.00 0.00 0.00 0.00 0.00 0.00 0.00 0.00 0.00 0.00 0.00 0.00 0.01 0.01 0.01 0.01
0.00 0.00 0.00 0.01 0.01 0.02 0.02 0.02 0.03 0.04 0.02 0.02 0.02 0.02 0.03 0.04 0.03 0.04 0.05 0.05 0.06 0.06 0.04 0.03 0.02 0.02 0.01 0.01 0.01 0.00 0.00 0.00 0.00 0.00 0.00 0.00 0.00 0.00 0.00 0.00 0.01 0.01 0.02 0.02
0.00 0.00 0.00 0.01 0.01 0.02 0.02 0.01 0.01 0.02 0.03 0.02 0.02 0.01 0.01 0.01 0.02 0.02 0.02 0.03 0.05 0.05 0.04 0.03 0.02 0.01 0.01 0.01 0.00 0.00 0.00 0.01 0.00 0.00 0.00 0.00 0.00 0.00 0.00 0.00 0.00 0.00 0.01 0.01
0.00 0.00 0.00 0.01 0.01 0.01 0.01 0.00 0.00 0.01 0.01 0.01 0.01 0.00 0.01 0.01 0.01 0.02 0.02 0.02 0.04 0.04 0.04 0.02 0.01 0.00 0.00 0.00 0.00 0.00 0.01 0.00 0.00 0.00 0.00 0.00 0.00 0.00 0.00 0.00 0.00 0.00 0.00 0.00
0.00 0.00 0.00 0.00 0.00 0.00 0.00 0.00 0.00 0.00 0.00 0.00 0.00 0.00 0.01 0.01 0.01 0.01 0.01 0.01 0.01 0.01 0.01 0.01 0.00 0.00 0.00 0.00 0.00 0.00 0.00 0.00 0.00 0.00 0.00 0.00 0.00 0.00 0.00 0.00 0.00 0.00 0.00 0.00
0.00 0.00 0.00 0.00 0.00 0.00 0.00 0.00 0.00 0.00 0.00 0.00 0.00 0.00 0.01 0.01 0.01 0.01 0.00 0.00 0.00 0.00 0.00 0.00 0.00 0.00 0.00 0.00 0.00 0.00 0.00 0.00 0.00 0.00 0.00 0.00 0.00 0.00 0.00 0.00 0.00 0.00 0.00 0.00
0.00 0.00 0.00 0.00 0.00 0.00 0.00 0.00 0.00 0.00 0.00 0.00 0.00 0.00 0.01 0.01 0.01 0.01 0.00 0.00 0.00 0.00 0.00 0.00 0.00 0.00 0.00 0.00 0.00 0.00 0.00 0.00 0.00 0.00 0.00 0.00 0.00 0.00 0.00 0.00 0.00 0.00 0.00 0.00
0.00 0.00 0.00 0.00 0.00 0.00 0.00 0.00 0.00 0.00 0.00 0.00 0.00 0.00 0.00 0.00 0.00 0.00 0.00 0.00 0.00 0.00 0.00 0.00 0.00 0.00 0.00 0.00 0.00 0.00 0.00 0.00 0.00 0.00 0.00 0.00 0.00 0.00 0.00 0.00 0.00 0.00 0.00 0.00
0.00 0.00 0.00 0.00 0.00 0.00 0.00 0.00 0.00 0.00 0.00 0.00 0.00 0.00 0.00 0.00 0.00 0.00 0.00 0.00 0.00 0.00 0.00 0.00 0.00 0.00 0.00 0.00 0.00 0.00 0.00 0.00 0.00 0.00 0.00 0.00 0.00 0.00 0.00 0.00 0.00 0.00 0.00 0.00
0.00 0.00 0.00 0.00 0.00 0.00 0.00 0.00 0.00 0.00 0.00 0.00 0.00 0.00 0.00 0.00 0.00 0.00 0.00 0.00 0.00 0.00 0.00 0.00 0.00 0.00 0.00 0.00 0.00 0.00 0.00 0.00 0.00 0.00 0.00 0.00 0.00 0.00 0.00 0.00 0.00 0.00 0.00 0.00
0.00 0.00 0.00 0.00 0.00 0.00 0.00 0.00 0.00 0.00 0.00 0.00 0.00 0.00 0.00 0.00 0.00 0.00 0.00 0.00 0.00 0.00 0.00 0.00 0.00 0.00 0.00 0.00 0.00 0.00 0.00 0.00 0.00 0.00 0.00 0.00 0.00 0.00 0.00 0.00 0.00 0.00 0.00 0.00
0.00 0.00 0.00 0.00 0.00 0.00 0.00 0.00 0.00 0.00 0.00 0.00 0.00 0.00 0.00 0.00 0.00 0.00 0.00 0.00 0.00 0.00 0.00 0.00 0.00 0.00 0.00 0.00 0.00 0.00 0.00 0.00 0.00 0.00 0.00 0.00 0.00 0.00 0.00 0.00 0.00 0.00 0.00 0.00
0.00 0.00 0.00 0.00 0.00 0.00 0.00 0.00 0.00 0.00 0.00 0.00 0.00 0.00 0.00 0.00 0.00 0.00 0.00 0.00 0.00 0.00 0.00 0.00 0.00 0.00 0.00 0.00 0.00 0.00 0.00 0.00 0.00 0.00 0.00 0.00 0.00 0.00 0.00 0.00 0.00 0.00 0.00 0.00
0.00 0.00 0.00 0.00 0.00 0.00 0.00 0.00 0.00 0.00 0.00 0.00 0.00 0.00 0.00 0.00 0.00 0.00 0.00 0.00 0.00 0.00 0.00 0.00 0.00 0.00 0.00 0.00 0.00 0.00 0.00 0.00 0.00 0.00 0.00 0.00 0.00 0.00 0.00 0.00 0.00 0.00 0.00 0.00
0.00 0.00 0.00 0.00 0.00 0.00 0.00 0.00 0.00 0.00 0.00 0.00 0.00 0.00 0.00 0.00 0.00 0.00 0.00 0.00 0.00 0.00 0.00 0.00 0.00 0.00 0.00 0.00 0.00 0.00 0.00 0.00 0.00 0.00 0.00 0.00 0.00 0.00 0.00 0.00 0.00 0.00 0.00 0.00
0.00 0.00 0.00 0.00 0.00 0.00 0.00 0.00 0.00 0.00 0.00 0.00 0.00 0.00 0.00 0.00 0.00 0.00 0.00 0.00 0.00 0.00 0.00 0.00 0.00 0.00 0.00 0.00 0.00 0.00 0.00 0.00 0.00 0.00 0.00 0.00 0.00 0.00 0.00 0.00 0.00 0.00 0.00 0.00
0.00 0.00 0.00 0.00 0.00 0.00 0.00 0.00 0.00 0.00 0.00 0.00 0.00 0.00 0.00 0.00 0.00 0.00 0.00 0.00 0.00 0.00 0.00 0.00 0.00 0.00 0.00 0.00 0.00 0.00 0.00 0.00 0.00 0.00 0.00 0.00 0.00 0.00 0.00 0.00 0.00 0.00 0.00 0.00
0.00 0.00 0.00 0.00 0.00 0.00 0.00 0.00 0.00 0.00 0.00 0.00 0.00 0.00 0.00 0.00 0.00 0.00 0.00 0.00 0.00 0.00 0.00 0.00 0.00 0.00 0.00 0.00 0.00 0.00 0.00 0.00 0.00 0.00 0.00 0.00 0.00 0.00 0.00 0.00 0.00 0.00 0.00 0.00
0.00 0.00 0.00 0.00 0.00 0.00 0.00 0.00 0.00 0.00 0.00 0.00 0.00 0.00 0.00 0.00 0.00 0.00 0.00 0.00 0.00 0.00 0.00 0.00 0.00 0.00 0.00 0.00 0.00 0.00 0.00 0.00 0.00 0.00 0.00 0.00 0.00 0.00 0.00 0.00 0.00 0.00 0.00 0.00
0.00 0.00 0.00 0.00 0.00 0.00 0.00 0.00 0.00 0.00 0.00 0.00 0.00 0.00 0.00 0.00 0.00 0.00 0.00 0.00 0.00 0.00 0.00 0.00 0.00 0.00 0.00 0.00 0.00 0.00 0.00 0.00 0.00 0.00 0.00 0.00 0.00 0.00 0.00 0.00 0.00 0.00 0.00 0.00
0.00 0.00 0.00 0.00 0.00 0.00 0.00 0.00 0.00 0.00 0.00 0.00 0.00 0.00 0.00 0.00 0.00 0.00 0.00 0.00 0.00 0.00 0.00 0.00 0.00 0.00 0.00 0.00 0.00 0.00 0.00 0.00 0.00 0.00 0.00 0.00 0.00 0.00 0.00 0.00 0.00 0.00 0.00 0.00
0.00 0.00 0.00 0.00 0.00 0.00 0.00 0.00 0.00 0.00 0.00 0.00 0.00 0.00 0.00 0.00 0.00 0.00 0.00 0.00 0.00 0.00 0.00 0.00 0.00 0.00 0.00 0.00 0.00 0.00 0.00 0.00 0.00 0.00 0.00 0.00 0.00 0.00 0.00 0.00 0.00 0.00 0.00 0.00
0.00 0.00 0.00 0.00 0.00 0.00 0.00 0.00 0.00 0.00 0.00 0.00 0.00 0.00 0.00 0.00 0.00 0.00 0.00 0.00 0.00 0.00 0.00 0.00 0.00 0.00 0.00 0.00 0.00 0.00 0.00 0.00 0.00 0.00 0.00 0.00 0.00 0.00 0.00 0.00 0.00 0.00 0.00 0.00
MSLP
1014.35 1014.78 1015.16 1015.46 1015.68 1015.82 1015.91 1015.97 1016.03 1016.12 1016.26 1016.48 1016.77 1017.13 1017.55 1018.01 1018.48 1018.94 1019.39 1019.80 1020.18 1020.53 1020.85 1021.17 1021.49 1021.83 1022.18 1022.55 1022.93 1023.31 1023.69 1024.05 1024.39 1024.70 1024.98 1025.22 1025.44 1025.63 1025.80 1025.97 1026.12 1026.26 1026.38 1026.49
1015.14 1015.56 1015.88 1016.08 1016.18 1016.20 1016.17 1016.13 1016.13 1016.20 1016.37 1016.64 1017.02 1017.48 1018.00 1018.54 1019.08 1019.60 1020.08 1020.52 1020.92 1021.29 1021.65 1022.01 1022.37 1022.75 1023.14 1023.54 1023.93 1024.31 1024.67 1025.00 1025.28 1025.53 1025.75 1025.94 1026.10 1026.25 1026.38 1026.50 1026.61 1026.71 1026.80 1026.86
1015.85 1016.22 1016.47 1016.58 1016.58 1016.49 1016.38 1016.29 1016.27 1016.35 1016.57 1016.91 1017.37 1017.92 1018.52 1019.14 1019.74 1020.30 1020.82 1021.28 1021.70 1022.09 1022.47 1022.85 1023.24 1023.65 1024.05 1024.46 1024.85 1025.21 1025.53 1025.81 1026.05 1026.24 1026.40 1026.53 1026.65 1026.75 1026.84 1026.92 1026.98 1027.03 1027.07 1027.08
1016.47 1016.77 1016.93 1016.96 1016.88 1016.73 1016.58 1016.48 1016.47 1016.59 1016.87 1017.29 1017.83 1018.46 1019.13 1019.81 1020.45 1021.05 1021.58 1022.06 1022.48 1022.89 1023.28 1023.67 1024.07 1024.48 1024.89 1025.28 1025.64 1025.96 1026.24 1026.46 1026.63 1026.77 1026.87 1026.96 1027.03 1027.09 1027.15 1027.19 1027.21 1027.22 1027.21 1027.17
1016.99 1017.20 1017.27 1017.23 1017.10 1016.94 1016.79 1016.71 1016.75 1016.94 1017.29 1017.78 1018.40 1019.10 1019.82 1020.54 1021.21 1021.82 1022.36 1022.84 1023.26 1023.66 1024.05 1024.44 1024.83 1025.22 1025.60 1025.96 1026.27 1026.54 1026.75 1026.91 1027.03 1027.11 1027.17 1027.22 1027.26 1027.29 1027.32 1027.33 1027.33 1027.30 1027.25 1027.17
1017.40 1017.52 1017.53 1017.44 1017.30 1017.14 1017.03 1017.01 1017.13 1017.40 1017.83 1018.40 1019.08 1019.83 1020.59 1021.32 1022.00 1022.60 1023.13 1023.60 1024.01 1024.39 1024.76 1025.13 1025.49 1025.84 1026.17 1026.47 1026.73 1026.93 1027.08 1027.18 1027.24 1027.28 1027.31 1027.33 1027.35 1027.37 1027.39 1027.39 1027.37 1027.32 1027.24 1027.14
1017.68 1017.73 1017.70 1017.60 1017.48 1017.37 1017.33 1017.40 1017.61 1017.97 1018.48 1019.12 1019.85 1020.62 1021.39 1022.12 1022.79 1023.37 1023.88 1024.32 1024.70 1025.05 1025.39 1025.71 1026.02 1026.32 1026.59 1026.83 1027.01 1027.15 1027.24 1027.28 1027.30 1027.31 1027.32 1027.33 1027.35 1027.38 1027.40 1027.40 1027.38 1027.33 1027.24 1027.11
1017.82 1017.84 1017.80 1017.73 1017.66 1017.63 1017.69 1017.86 1018.17 1018.63 1019.21 1019.90 1020.66 1021.44 1022.21 1022.92 1023.55 1024.10 1024.57 1024.97 1025.31 1025.61 1025.90 1026.17 1026.42 1026.66 1026.86 1027.02 1027.14 1027.22 1027.25 1027.26 1027.25 1027.24 1027.25 1027.27 1027.30 1027.35 1027.39 1027.41 1027.40 1027.35 1027.26 1027.13
1017.82 1017.83 1017.83 1017.82 1017.84 1017.91 1018.09 1018.37 1018.78 1019.32 1019.97 1020.70 1021.47 1022.24 1022.98 1023.66 1024.25 1024.75 1025.17 1025.52 1025.81 1026.06 1026.29 1026.49 1026.69 1026.85 1026.99 1027.09 1027.15 1027.17 1027.17 1027.15 1027.13 1027.12 1027.13 1027.17 1027.24 1027.31 1027.38 1027.43 1027.44 1027.40 1027.32 1027.18
1017.69 1017.73 1017.79 1017.87 1017.99 1018.19 1018.49 1018.89 1019.40 1020.01 1020.70 1021.45 1022.22 1022.97 1023.68 1024.30 1024.84 1025.29 1025.65 1025.94 1026.17 1026.37 1026.54 1026.69 1026.81 1026.92 1026.99 1027.04 1027.05 1027.04 1027.01 1026.99 1026.97 1026.98 1027.01 1027.08 1027.18 1027.28 1027.38 1027.46 1027.49 1027.47 1027.39 1027.26
1017.44 1017.55 1017.69 1017.88 1018.13 1018.45 1018.87 1019.37 1019.97 1020.64 1021.37 1022.12 1022.88 1023.59 1024.25 1024.82 1025.30 1025.69 1025.99 1026.23 1026.41 1026.54 1026.66 1026.75 1026.82 1026.87 1026.89 1026.90 1026.89 1026.86 1026.83 1026.81 1026.81 1026.84 1026.91 1027.01 1027.13 1027.27 1027.39 1027.49 1027.54 1027.53 1027.46 1027.33
1017.13 1017.32 1017.57 1017.87 1018.24 1018.69 1019.21 1019.81 1020.47 1021.18 1021.93 1022.68 1023.40 1024.08 1024.68 1025.20 1025.62 1025.95 1026.20 1026.38 1026.51 1026.60 1026.66 1026.70 1026.72 1026.73 1026.73 1026.71 1026.69 1026.66 1026.64 1026.64 1026.67 1026.73 1026.82 1026.95 1027.10 1027.25 1027.39 1027.50 1027.56 1027.57 1027.50 1027.37
1016.82 1017.10 1017.45 1017.87 1018.36 1018.91 1019.52 1020.19 1020.90 1021.64 1022.39 1023.12 1023.81 1024.44 1024.99 1025.46 1025.83 1026.11 1026.31 1026.44 1026.52 1026.57 1026.58 1026.59 1026.57 1026.56 1026.53 1026.51 1026.49 1026.48 1026.48 1026.50 1026.56 1026.65 1026.77 1026.92 1027.08 1027.24 1027.39 1027.50 1027.56 1027.56 1027.50 1027.37
1016.55 1016.93 1017.38 1017.91 1018.49 1019.13 1019.82 1020.54 1021.28 1022.03 1022.77 1023.47 1024.12 1024.71 1025.21 1025.63 1025.95 1026.19 1026.35 1026.45 1026.49 1026.50 1026.48 1026.45 1026.42 1026.38 1026.35 1026.33 1026.32 1026.33 1026.36 1026.41 1026.50 1026.61 1026.75 1026.91 1027.08 1027.24 1027.37 1027.48 1027.53 1027.53 1027.47 1027.35
1016.38 1016.85 1017.39 1018.01 1018.67 1019.38 1020.12 1020.87 1021.62 1022.36 1023.08 1023.75 1024.37 1024.91 1025.37 1025.75 1026.04 1026.24 1026.37 1026.44 1026.46 1026.44 1026.40 1026.35 1026.30 1026.25 1026.22 1026.20 1026.21 1026.24 1026.29 1026.38 1026.49 1026.63 1026.78 1026.94 1027.10 1027.25 1027.37 1027.46 1027.51 1027.50 1027.45 1027.34
1016.31 1016.86 1017.49 1018.18 1018.91 1019.66 1020.43 1021.19 1021.94 1022.66 1023.35 1023.99 1024.56 1025.07 1025.50 1025.85 1026.11 1026.30 1026.41 1026.46 1026.47 1026.43 1026.37 1026.31 1026.24 1026.19 1026.16 1026.15 1026.17 1026.22 1026.30 1026.41 1026.54 1026.69 1026.84 1027.01 1027.16 1027.29 1027.40 1027.47 1027.51 1027.50 1027.45 1027.35
1016.34 1016.97 1017.67 1018.42 1019.19 1019.97 1020.75 1021.50 1022.23 1022.93 1023.58 1024.18 1024.73 1025.20 1025.61 1025.94 1026.19 1026.37 1026.48 1026.53 1026.52 1026.48 1026.41 1026.34 1026.27 1026.21 1026.17 1026.17 1026.20 1026.27 1026.36 1026.48 1026.63 1026.78 1026.94 1027.10 1027.24 1027.37 1027.46 1027.52 1027.55 1027.54 1027.49 1027.42
1016.45 1017.16 1017.91 1018.70 1019.50 1020.29 1021.06 1021.79 1022.49 1023.15 1023.77 1024.33 1024.84 1025.30 1025.69 1026.01 1026.27 1026.45 1026.57 1026.62 1026.62 1026.58 1026.51 1026.44 1026.36 1026.30 1026.26 1026.26 1026.29 1026.36 1026.46 1026.60 1026.74 1026.90 1027.07 1027.22 1027.36 1027.47 1027.56 1027.61 1027.64 1027.64 1027.61 1027.55
1016.62 1017.38 1018.19 1019.00 1019.81 1020.59 1021.33 1022.03 1022.69 1023.31 1023.88 1024.41 1024.90 1025.33 1025.72 1026.05 1026.31 1026.51 1026.64 1026.71 1026.73 1026.70 1026.64 1026.57 1026.49 1026.43 1026.39 1026.38 1026.41 1026.48 1026.59 1026.72 1026.87 1027.03 1027.19 1027.35 1027.48 1027.59 1027.68 1027.74 1027.77 1027.78 1027.77 1027.73
1016.81 1017.63 1018.46 1019.29 1020.09 1020.85 1021.55 1022.21 1022.82 1023.39 1023.92 1024.41 1024.88 1025.30 1025.68 1026.02 1026.30 1026.52 1026.68 1026.77 1026.81 1026.80 1026.76 1026.69 1026.62 1026.56 1026.52 1026.51 1026.54 1026.60 1026.71 1026.84 1026.99 1027.15 1027.31 1027.47 1027.61 1027.73 1027.82 1027.89 1027.94 1027.96 1027.96 1027.95
1017.02 1017.87 1018.72 1019.54 1020.32 1021.04 1021.71 1022.31 1022.87 1023.39 1023.88 1024.34 1024.78 1025.19 1025.57 1025.92 1026.22 1026.46 1026.65 1026.77 1026.84 1026.85 1026.83 1026.78 1026.72 1026.66 1026.62 1026.61 1026.64 1026.70 1026.81 1026.93 1027.09 1027.25 1027.42 1027.58 1027.73 1027.86 1027.97 1028.05 1028.11 1028.15 1028.17 1028.17
1017.23 1018.10 1018.96 1019.76 1020.51 1021.19 1021.80 1022.36 1022.86 1023.33 1023.78 1024.21 1024.62 1025.02 1025.41 1025.76 1026.07 1026.34 1026.55 1026.71 1026.80 1026.84 1026.84 1026.81 1026.76 1026.72 1026.69 1026.69 1026.72 1026.78 1026.89 1027.02 1027.17 1027.34 1027.52 1027.69 1027.84 1027.99 1028.11 1028.21 1028.29 1028.34 1028.38 1028.40
1017.45 1018.32 1019.16 1019.94 1020.65 1021.28 1021.84 1022.35 1022.81 1023.24 1023.65 1024.05 1024.45 1024.84 1025.21 1025.57 1025.89 1026.17 1026.40 1026.58 1026.69 1026.76 1026.78 1026.78 1026.75 1026.73 1026.71 1026.73 1026.77 1026.84 1026.95 1027.09 1027.25 1027.43 1027.61 1027.79 1027.96 1028.11 1028.25 1028.37 1028.46 1028.53 1028.58 1028.61
1017.65 1018.51 1019.32 1020.07 1020.74 1021.33 1021.85 1022.31 1022.74 1023.14 1023.52 1023.90 1024.28 1024.65 1025.02 1025.37 1025.70 1025.98 1026.22 1026.41 1026.55 1026.63 1026.68 1026.70 1026.70 1026.70 1026.71 1026.75 1026.81 1026.90 1027.03 1027.18 1027.35 1027.53 1027.72 1027.91 1028.09 1028.25 1028.39 1028.52 1028.63 1028.71 1028.78 1028.82
1017.81 1018.65 1019.42 1020.13 1020.76 1021.32 1021.81 1022.25 1022.66 1023.04 1023.40 1023.77 1024.13 1024.50 1024.85 1025.20 1025.51 1025.79 1026.03 1026.23 1026.37 1026.47 1026.54 1026.59 1026.62 1026.65 1026.70 1026.76 1026.85 1026.97 1027.12 1027.28 1027.46 1027.66 1027.85 1028.04 1028.22 1028.39 1028.54 1028.67 1028.78 1028.88 1028.96 1029.01
1017.89 1018.69 1019.43 1020.10 1020.71 1021.24 1021.72 1022.15 1022.55 1022.93 1023.29 1023.65 1024.01 1024.37 1024.71 1025.04 1025.34 1025.61 1025.84 1026.03 1026.18 1026.29 1026.38 1026.45 1026.52 1026.59 1026.67 1026.77 1026.90 1027.05 1027.22 1027.40 1027.60 1027.79 1027.99 1028.18 1028.35 1028.51 1028.66 1028.79 1028.91 1029.01 1029.10 1029.17
1017.85 1018.60 1019.31 1019.95 1020.53 1021.06 1021.53 1021.97 1022.38 1022.78 1023.15 1023.53 1023.89 1024.23 1024.57 1024.88 1025.16 1025.41 1025.63 1025.81 1025.96 1026.09 1026.20 1026.30 1026.40 1026.51 1026.63 1026.77 1026.94 1027.12 1027.31 1027.51 1027.72 1027.92 1028.11 1028.29 1028.45 1028.60 1028.74 1028.87 1028.98 1029.09 1029.19 1029.28
Thickness
5625 5630 5631 5628 5629 5632 5632 5630 5626 5627 5627 5623 5620 5617 5612 5607 5603 5599 5595 5592 5588 5584 5581 5578 5576 5573 5570 5567 5564 5561 5558 5555 5551 5547 5544 5539 5535 5531 5527 5523 5518 5513 5509 5505
5616 5622 5624 5620 5620 5623 5623 5624 5623 5620 5614 5614 5610 5607 5602 5597 5593 5589 5584 5580 5575 5570 5567 5564 5561 5558 5554 5551 5548 5545 5542 5538 5534 5531 5527 5523 5519 5514 5510 5506 5502 5498 5493 5489
5605 5615 5616 5603 5605 5610 5610 5610 5610 5606 5604 5602 5598 5595 5592 5588 5583 5578 5573 5568 5563 5558 5554 5550 5547 5544 5540 5537 5534 5531 5527 5523 5520 5516 5512 5508 5504 5499 5495 5491 5487 5482 5478 5474
5598 5604 5592 5596 5607 5606 5601 5598 5600 5598 5594 5590 5586 5581 5579 5576 5572 5566 5561 5555 5550 5546 5541 5537 5534 5530 5527 5524 5521 5518 5514 5510 5506 5502 5498 5494 5490 5485 5481 5476 5472 5468 5463 5459
5589 5587 5590 5598 5602 5600 5596 5588 5589 5587 5582 5578 5574 5571 5564 5561 5559 5554 5549 5543 5538 5534 5530 5526 5522 5519 5516 5512 5509 5506 5502 5498 5494 5490 5486 5482 5478 5473 5469 5464 5460 5455 5451 5446
5587 5586 5583 5592 5599 5602 5594 5581 5583 5580 5575 5571 5569 5562 5553 5548 5545 5541 5536 5532 5527 5523 5520 5515 5512 5509 5506 5501 5498 5495 5491 5487 5483 5479 5475 5471 5466 5462 5457 5453 5449 5444 5439 5434
5583 5582 5584 5593 5596 5596 5581 5577 5577 5574 5569 5565 5559 5553 5545 5539 5534 5530 5525 5521 5517 5514 5509 5506 5503 5500 5496 5492 5488 5484 5481 5477 5473 5469 5465 5461 5457 5452 5448 5443 5438 5433 5427 5422
5578 5578 5580 5590 5592 5584 5578 5574 5571 5566 5561 5555 5549 5543 5537 5531 5525 5521 5516 5512 5509 5505 5500 5496 5494 5491 5486 5482 5479 5476 5472 5469 5465 5460 5457 5453 5448 5443 5438 5434 5428 5422 5417 5412
5581 5577 5581 5581 5582 5577 5573 5568 5563 5558 5552 5549 5542 5535 5529 5523 5517 5513 5508 5504 5500 5497 5492 5489 5486 5483 5479 5475 5471 5468 5464 5460 5456 5452 5448 5444 5440 5436 5431 5425 5420 5415 5410 5405
5583 5583 5581 5578 5575 5571 5568 5563 5557 5553 5548 5543 5536 5528 5521 5515 5510 5505 5501 5497 5493 5490 5486 5482 5479 5476 5472 5468 5465 5461 5457 5452 5449 5445 5442 5438 5434 5430 5425 5420 5415 5411 5406 5402
5583 5583 5579 5576 5571 5566 5560 5556 5551 5546 5541 5536 5530 5522 5516 5510 5505 5500 5496 5491 5487 5483 5479 5476 5472 5469 5466 5463 5459 5455 5451 5447 5444 5440 5437 5433 5429 5424 5421 5416 5412 5407 5403 5399
5587 5586 5579 5573 5568 5564 5558 5551 5546 5541 5533 5528 5524 5518 5512 5505 5500 5495 5491 5486 5481 5477 5473 5470 5467 5464 5461 5458 5454 5450 5447 5444 5440 5437 5433 5430 5425 5421 5417 5414 5411 5407 5402 5399
5596 5589 5580 5574 5567 5561 5554 5548 5542 5537 5531 5523 5518 5514 5508 5501 5495 5491 5486 5482 5477 5473 5469 5466 5462 5459 5456 5453 5450 5447 5443 5441 5437 5434 5431 5427 5423 5419 5416 5412 5409 5406 5403 5400
5595 5588 5577 5570 5563 5557 5552 5545 5538 5532 5525 5520 5514 5509 5504 5498 5492 5488 5483 5479 5474 5470 5465 5461 5457 5454 5452 5449 5446 5444 5441 5438 5436 5433 5430 5426 5422 5418 5414 5411 5408 5405 5403 5401
5593 5589 5578 5568 5559 5553 5547 5541 5534 5527 5520 5514 5510 5505 5501 5495 5489 5485 5480 5476 5471 5466 5462 5458 5454 5450 5447 5445 5443 5440 5438 5436 5433 5431 5428 5424 5421 5417 5413 5410 5407 5404 5402 5402
5587 5581 5574 5566 5557 5550 5544 5538 5532 5524 5518 5512 5507 5502 5498 5493 5487 5482 5477 5473 5468 5464 5460 5455 5451 5447 5445 5442 5440 5438 5436 5435 5432 5429 5426 5423 5420 5417 5413 5410 5407 5404 5403 5401
5586 5576 5568 5562 5555 5548 5542 5537 5531 5524 5517 5511 5505 5500 5494 5489 5484 5479 5475 5471 5466 5462 5457 5453 5449 5446 5443 5440 5438 5435 5433 5432 5431 5428 5425 5422 5419 5416 5413 5410 5407 5405 5403 5401
5595 5586 5576 5568 5558 5548 5541 5535 5529 5523 5516 5510 5505 5498 5493 5487 5483 5478 5473 5468 5464 5460 5455 5451 5447 5444 5441 5439 5436 5434 5432 5430 5428 5426 5423 5421 5418 5416 5413 5410 5407 5405 5403 5402
5590 5582 5573 5565 5557 5550 5542 5534 5527 5521 5515 5510 5504 5498 5493 5488 5482 5477 5472 5467 5463 5459 5454 5450 5446 5443 5440 5437 5436 5433 5431 5429 5426 5424 5422 5420 5417 5415 5412 5410 5407 5405 5404 5403
5587 5579 5571 5562 5555 5548 5540 5533 5526 5520 5515 5509 5503 5497 5492 5487 5482 5477 5471 5467 5462 5457 5453 5449 5446 5442 5439 5437 5435 5433 5430 5428 5425 5423 5420 5418 5416 5414 5411 5409 5407 5405 5404 5403
5585 5577 5569 5561 5553 5546 5540 5533 5526 5519 5514 5509 5503 5498 5493 5487 5482 5477 5471 5467 5463 5459 5455 5451 5446 5442 5439 5437 5435 5432 5430 5427 5425 5422 5420 5417 5415 5413 5411 5409 5407 5406 5405 5404
5583 5576 5568 5560 5552 5543 5537 5532 5526 5520 5514 5509 5504 5499 5493 5488 5483 5477 5473 5468 5465 5461 5456 5452 5448 5444 5441 5438 5435 5433 5430 5428 5425 5422 5419 5417 5415 5413 5411 5409 5408 5406 5405 5404
5582 5575 5567 5559 5551 5542 5535 5530 5525 5520 5514 5509 5504 5499 5495 5490 5484 5479 5475 5471 5467 5463 5459 5455 5451 5448 5445 5440 5437 5435 5432 5429 5426 5423 5421 5418 5416 5414 5412 5410 5408 5407 5406 5406
5579 5572 5564 5556 5548 5540 5533 5528 5523 5519 5515 5511 5507 5502 5497 5491 5486 5482 5479 5475 5471 5467 5462 5458 5455 5451 5448 5444 5440 5438 5435 5432 5428 5426 5423 5420 5418 5415 5413 5412 5410 5409 5408 5408
5577 5569 5561 5554 5547 5541 5533 5527 5522 5517 5513 5509 5507 5503 5500 5496 5492 5488 5482 5479 5474 5470 5465 5462 5459 5455 5451 5447 5444 5441 5438 5435 5432 5429 5426 5423 5421 5418 5416 5415 5413 5412 5411 5411
5573 5567 5560 5554 5548 5540 5533 5527 5521 5516 5512 5508 5505 5503 5500 5497 5494 5490 5486 5482 5478 5474 5470 5466 5463 5459 5455 5452 5448 5445 5442 5438 5435 5432 5430 5427 5424 5422 5421 5419 5418 5416 5415 5414
5568 5562 5555 5549 5543 5538 5533 5528 5522 5517 5513 5510 5507 5504 5502 5499 5495 5492 5489 5485 5482 5478 5474 5471 5467 5464 5460 5457 5453 5449 5446 5443 5439 5436 5434 5431 5429 5427 5425 5424 5422 5421 5420 5418